Wallingford, CT

5:07 PM EDT on September 28, 2016 (GMT -0400)
Meriden Markham Municipal

Weather History for KMMK - November, 2012

Change the Weather History Date:

Tuesday, November 6, 2012

  Actual Average (KHVN) Record (KHVN)
Temperature  
Mean Temperature 31 °F -  
Max Temperature 43 °F 52 °F 69 °F (2015)
Min Temperature 19 °F 38 °F 26 °F (2012)
Degree Days  
Heating Degree Days 34    
Moisture  
Dew Point 19 °F    
Average Humidity 63    
Maximum Humidity 89    
Minimum Humidity 31    
Precipitation  
Precipitation 0.00 in - - ()
Sea Level Pressure  
Sea Level Pressure 30.20 in    
Wind  
Wind Speed 1 mph (NNE)    
Max Wind Speed 6 mph    
Max Gust Speed -    
Visibility 10 miles    
Events      
Averages and records for this station are not official NWS values.
T = Trace of Precipitation, MM = Missing Value Source: NWS Daily Summary

Daily Weather History Graph

Daily Weather History Graph

Search for Another Location

Airport or City:

Trip Planner

Search our weather history database for the weather conditions in past years. The results will help you decide how hot, cold, wet, or windy it might be!

Date:

Astronomy

Nov. 06, 2012 Rise Set
Actual Time 6:29 AM EST 4:39 PM EST
Civil Twilight 6:00 AM EST 5:08 PM EST
Nautical Twilight 5:27 AM EST 5:41 PM EST
Astronomical Twilight 4:55 AM EST 6:14 PM EST
Moon 11:16 PM EST (11/6) 12:19 PM EST (11/6)
Length of Visible Light 11h 08m
Length of Day
10h 10m
Waning Gibbous, 53% of the Moon is Illuminated
Nov 6
Waning Gibbous
Nov 6
Last Quarter
Nov 13
New
Nov 20
First Quarter
Nov 28
Full

Hourly Weather History & Observations

Time (EST) Temp. Windchill Dew Point Humidity Pressure Visibility Wind Dir Wind Speed Gust Speed Precip Events Conditions
12:53 AM 27.0 °F - 19.9 °F 75% 30.19 in 10.0 mi Calm Calm - N/A   Clear
1:53 AM 24.1 °F - 19.9 °F 84% 30.20 in 10.0 mi Calm Calm - N/A   Clear
2:53 AM 21.9 °F - 19.0 °F 89% 30.20 in 10.0 mi Calm Calm - N/A   Clear
3:53 AM 23.0 °F - 19.0 °F 85% 30.19 in 10.0 mi Calm Calm - N/A   Clear
4:53 AM 21.0 °F - 17.1 °F 85% 30.20 in 10.0 mi Calm Calm - N/A   Clear
5:53 AM 19.9 °F - 17.1 °F 89% 30.21 in 10.0 mi Calm Calm - N/A   Clear
7:53 AM 27.0 °F - 23.0 °F 85% 30.26 in 10.0 mi Calm Calm - N/A   Clear
8:53 AM 32.0 °F - 21.0 °F 64% 30.25 in 10.0 mi Calm Calm - N/A   Clear
9:53 AM 37.9 °F 34.4 °F 18.0 °F 45% 30.25 in 10.0 mi Variable 4.6 mph - N/A   Clear
10:53 AM 39.0 °F 36.8 °F 18.0 °F 43% 30.24 in 10.0 mi Variable 3.5 mph - N/A   Clear
11:53 AM 39.9 °F 35.8 °F 17.1 °F 40% 30.22 in 10.0 mi North 5.8 mph - N/A   Clear
12:53 PM 39.9 °F 36.7 °F 16.0 °F 38% 30.22 in 10.0 mi East 4.6 mph - N/A   Clear
1:53 PM 42.1 °F - 16.0 °F 35% 30.20 in 10.0 mi Calm Calm - N/A   Clear
2:53 PM 43.0 °F 39.5 °F 14.0 °F 31% 30.18 in 10.0 mi Variable 5.8 mph - N/A   Clear
3:53 PM 41.0 °F 38.0 °F 15.1 °F 35% 30.18 in 10.0 mi NNE 4.6 mph - N/A   Clear
4:53 PM 37.9 °F - 15.1 °F 39% 30.18 in 10.0 mi Calm Calm - N/A   Clear
5:53 PM 30.9 °F - 21.0 °F 67% 30.18 in 10.0 mi Calm Calm - N/A   Clear
6:53 PM 28.9 °F - 19.9 °F 69% 30.19 in 10.0 mi Calm Calm - N/A   Clear
7:53 PM 28.9 °F - 21.9 °F 75% 30.17 in 10.0 mi Calm Calm - N/A   Clear
8:53 PM 28.0 °F - 21.0 °F 75% 30.18 in 10.0 mi Calm Calm - N/A   Clear
9:53 PM 27.0 °F - 19.9 °F 75% 30.16 in 10.0 mi Calm Calm - N/A   Clear
10:53 PM 27.0 °F - 19.9 °F 75% 30.17 in 10.0 mi Calm Calm - N/A   Clear
11:53 PM 32.0 °F 26.4 °F 19.0 °F 59% 30.14 in 10.0 mi North 5.8 mph - N/A   Clear